Tracking 30510 objects as of 22-May-2025
HD Live streaming from Space Station
objects crossing your sky now

IONOSFERA-M 02

Track IONOSFERA-M 02 now!
10-day predictions


NORAD ID: 61736
Int'l Code: 2024-199B
Perigee: 822.3 km
Apogee: 824.7 km
Inclination: 98.8 °
Period: 101.2 minutes
Semi major axis: 7194 km
RCS: Unknown
Launch date: November 4, 2024
Source: Commonwealth of Independent States (former USSR) (CIS)
Launch site: VOSTOCHNY COSMODROME (VOSTO)
Your satellite tracking list
Your tracking list is empty




NASA's NSSDC Master Catalog

Two Line Element Set (TLE):
1 61736U 24199B   25142.48579964  .00000048  00000-0  41494-4 0  9992
2 61736  98.7716  13.5068 0001643  54.7754 305.3577 14.22667603 75270
Source of the keplerian elements: AFSPC